Time,TemperatureF,DewpointF,PressureIn,WindDirection,WindDirectionDegrees,WindSpeedMPH,WindSpeedGustMPH,Humidity,HourlyPrecipIn,Conditions,Clouds,dailyrainin,SoftwareType,DateUTC
2013-03-15 00:00:00,30.9,8.8,29.98,ENE,61,0.0,1.0,39,0.00,,,0.00,Wunderground v.1.15,2013-03-15 04:00:00,
2013-03-15 00:05:00,30.6,8.5,29.97,ENE,61,0.0,2.0,39,0.00,,,0.00,Wunderground v.1.15,2013-03-15 04:05:00,
2013-03-15 00:10:00,30.6,9.1,29.97,NE,55,1.0,1.0,40,0.00,,,0.00,Wunderground v.1.15,2013-03-15 04:10:00,
2013-03-15 00:20:00,30.4,11.1,29.98,NE,55,1.0,1.0,44,0.00,,,0.00,Wunderground v.1.15,2013-03-15 04:20:00,
2013-03-15 00:25:00,30.3,10.4,29.98,NE,55,0.0,1.0,43,0.00,,,0.00,Wunderground v.1.15,2013-03-15 04:25:00,
2013-03-15 00:30:00,30.3,9.4,29.98,NE,55,0.0,0.0,41,0.00,,,0.00,Wunderground v.1.15,2013-03-15 04:30:00,
2013-03-15 00:35:00,30.6,10.7,29.97,NE,55,0.0,0.0,43,0.00,,,0.00,Wunderground v.1.15,2013-03-15 04:35:00,
2013-03-15 00:45:00,30.3,9.9,29.97,NE,55,0.0,1.0,42,0.00,,,0.00,Wunderground v.1.15,2013-03-15 04:45:00,
2013-03-15 00:55:00,30.1,8.1,29.98,NE,55,0.0,0.0,39,0.00,,,0.00,Wunderground v.1.15,2013-03-15 04:55:00,
2013-03-15 01:05:00,29.8,9.5,29.97,NE,55,0.0,0.0,42,0.00,,,0.00,Wunderground v.1.15,2013-03-15 05:05:00,
2013-03-15 01:15:00,29.8,9.5,29.96,NE,55,1.0,1.0,42,0.00,,,0.00,Wunderground v.1.15,2013-03-15 05:15:00,
2013-03-15 01:20:00,29.8,12.0,29.97,NE,55,1.0,1.0,47,0.00,,,0.00,Wunderground v.1.15,2013-03-15 05:20:00,
2013-03-15 01:30:00,29.5,10.7,29.96,East,84,1.0,1.0,45,0.00,,,0.00,Wunderground v.1.15,2013-03-15 05:30:00,
2013-03-15 01:40:00,29.5,11.2,29.96,East,84,0.0,0.0,46,0.00,,,0.00,Wunderground v.1.15,2013-03-15 05:40:00,
2013-03-15 01:50:00,29.7,9.4,29.96,East,84,0.0,0.0,42,0.00,,,0.00,Wunderground v.1.15,2013-03-15 05:50:00,
2013-03-15 02:00:00,29.3,11.1,29.96,East,84,1.0,1.0,46,0.00,,,0.00,Wunderground v.1.15,2013-03-15 06:00:00,
2013-03-15 02:10:00,29.5,8.7,29.94,East,84,1.0,1.0,41,0.00,,,0.00,Wunderground v.1.15,2013-03-15 06:10:00,
2013-03-15 02:15:00,29.5,10.2,29.94,East,84,1.0,1.0,44,0.00,,,0.00,Wunderground v.1.15,2013-03-15 06:15:00,
2013-03-15 02:25:00,29.7,9.9,29.94,East,84,0.0,1.0,43,0.00,,,0.00,Wunderground v.1.15,2013-03-15 06:25:00,
2013-03-15 02:30:00,29.5,8.7,29.94,ENE,61,1.0,2.0,41,0.00,,,0.00,Wunderground v.1.15,2013-03-15 06:30:00,
2013-03-15 02:40:00,30.0,10.2,29.94,ENE,65,1.0,1.0,43,0.00,,,0.00,Wunderground v.1.15,2013-03-15 06:40:00,
2013-03-15 02:50:00,29.7,8.8,29.94,ENE,65,1.0,1.0,41,0.00,,,0.00,Wunderground v.1.15,2013-03-15 06:50:00,
2013-03-15 03:00:00,29.5,10.2,29.94,ENE,65,1.0,1.0,44,0.00,,,0.00,Wunderground v.1.15,2013-03-15 07:00:00,
2013-03-15 03:10:00,29.3,12.9,29.95,ENE,65,0.0,0.0,50,0.00,,,0.00,Wunderground v.1.15,2013-03-15 07:10:00,
2013-03-15 03:20:00,29.1,10.9,29.94,ENE,60,1.0,1.0,46,0.00,,,0.00,Wunderground v.1.15,2013-03-15 07:20:00,
2013-03-15 03:30:00,29.5,11.2,29.94,ENE,67,1.0,1.0,46,0.00,,,0.00,Wunderground v.1.15,2013-03-15 07:30:00,
2013-03-15 03:35:00,29.3,11.1,29.93,ENE,67,0.0,1.0,46,0.00,,,0.00,Wunderground v.1.15,2013-03-15 07:35:00,
2013-03-15 03:45:00,29.0,8.7,29.93,ESE,123,2.0,3.0,42,0.00,,,0.00,Wunderground v.1.15,2013-03-15 07:45:00,
2013-03-15 03:50:00,29.1,10.9,29.92,ESE,103,1.0,2.0,46,0.00,,,0.00,Wunderground v.1.15,2013-03-15 07:50:00,
2013-03-15 04:00:00,28.8,12.0,29.92,ENE,72,1.0,1.0,49,0.00,,,0.00,Wunderground v.1.15,2013-03-15 08:00:00,
2013-03-15 04:10:00,29.4,12.6,29.93,ENE,72,0.0,0.0,49,0.00,,,0.00,Wunderground v.1.15,2013-03-15 08:10:00,
2013-03-15 04:20:00,29.4,11.1,29.93,ENE,72,0.0,1.0,46,0.00,,,0.00,Wunderground v.1.15,2013-03-15 08:20:00,
2013-03-15 04:30:00,29.7,11.4,29.92,ENE,72,0.0,0.0,46,0.00,,,0.00,Wunderground v.1.15,2013-03-15 08:30:00,
2013-03-15 04:35:00,29.7,10.9,29.92,ENE,72,0.0,0.0,45,0.00,,,0.00,Wunderground v.1.15,2013-03-15 08:35:00,
2013-03-15 04:45:00,29.7,12.8,29.92,ESE,102,0.0,2.0,49,0.00,,,0.00,Wunderground v.1.15,2013-03-15 08:45:00,
2013-03-15 04:50:00,30.0,11.2,29.92,NE,54,0.0,1.0,45,0.00,,,0.00,Wunderground v.1.15,2013-03-15 08:50:00,
2013-03-15 05:00:00,31.9,13.4,29.92,NE,35,1.0,1.0,46,0.00,,,0.00,Wunderground v.1.15,2013-03-15 09:00:00,
2013-03-15 05:10:00,33.1,19.1,29.92,NE,35,0.0,0.0,56,0.00,,,0.00,Wunderground v.1.15,2013-03-15 09:10:00,
2013-03-15 05:20:00,34.1,20.9,29.91,ENE,65,1.0,1.0,58,0.00,,,0.00,Wunderground v.1.15,2013-03-15 09:20:00,
2013-03-15 05:30:00,34.7,21.4,29.91,ENE,71,0.0,0.0,58,0.00,,,0.00,Wunderground v.1.15,2013-03-15 09:30:00,
2013-03-15 05:35:00,34.6,21.7,29.91,ENE,71,0.0,1.0,59,0.00,,,0.00,Wunderground v.1.15,2013-03-15 09:35:00,
2013-03-15 05:45:00,35.2,22.7,29.92,West,260,1.0,2.0,60,0.00,,,0.00,Wunderground v.1.15,2013-03-15 09:45:00,
2013-03-15 05:55:00,35.5,23.0,29.91,West,260,1.0,1.0,60,0.00,,,0.00,Wunderground v.1.15,2013-03-15 09:55:00,
2013-03-15 06:05:00,34.9,22.4,29.92,West,260,0.0,1.0,60,0.00,,,0.00,Wunderground v.1.15,2013-03-15 10:05:00,
2013-03-15 06:15:00,34.7,22.6,29.92,West,260,1.0,1.0,61,0.00,,,0.00,Wunderground v.1.15,2013-03-15 10:15:00,
2013-03-15 06:20:00,34.7,22.6,29.93,West,260,0.0,1.0,61,0.00,,,0.00,Wunderground v.1.15,2013-03-15 10:20:00,
2013-03-15 06:30:00,34.4,22.3,29.93,West,260,0.0,0.0,61,0.00,,,0.00,Wunderground v.1.15,2013-03-15 10:30:00,
2013-03-15 06:40:00,34.3,21.8,29.93,West,259,1.0,1.0,60,0.00,,,0.00,Wunderground v.1.15,2013-03-15 10:40:00,
2013-03-15 06:50:00,34.0,21.6,29.94,West,260,0.0,0.0,60,0.00,,,0.00,Wunderground v.1.15,2013-03-15 10:50:00,
2013-03-15 07:00:00,33.4,20.6,29.95,West,260,0.0,0.0,59,0.00,,,0.00,Wunderground v.1.15,2013-03-15 11:00:00,
2013-03-15 07:10:00,33.2,20.4,29.96,West,260,0.0,0.0,59,0.00,,,0.00,Wunderground v.1.15,2013-03-15 11:10:00,
2013-03-15 07:20:00,32.8,20.0,29.96,West,260,0.0,0.0,59,0.00,,,0.00,Wunderground v.1.15,2013-03-15 11:20:00,
2013-03-15 07:25:00,32.9,20.1,29.96,West,260,0.0,0.0,59,0.00,,,0.00,Wunderground v.1.15,2013-03-15 11:25:00,
2013-03-15 07:35:00,32.8,20.4,29.96,West,260,0.0,0.0,60,0.00,,,0.00,Wunderground v.1.15,2013-03-15 11:35:00,
2013-03-15 07:40:00,32.7,20.3,29.96,West,260,0.0,0.0,60,0.00,,,0.00,Wunderground v.1.15,2013-03-15 11:40:00,
2013-03-15 07:50:00,32.7,20.7,29.96,West,260,0.0,0.0,61,0.00,,,0.00,Wunderground v.1.15,2013-03-15 11:50:00,
2013-03-15 08:00:00,33.1,21.1,29.95,West,260,0.0,0.0,61,0.00,,,0.00,Wunderground v.1.15,2013-03-15 12:00:00,
2013-03-15 08:10:00,33.2,21.6,29.97,West,260,0.0,0.0,62,0.00,,,0.00,Wunderground v.1.15,2013-03-15 12:10:00,
2013-03-15 08:20:00,33.2,21.2,29.97,West,259,0.0,0.0,61,0.00,,,0.00,Wunderground v.1.15,2013-03-15 12:20:00,
2013-03-15 08:30:00,33.4,21.0,29.97,West,260,0.0,0.0,60,0.00,,,0.00,Wunderground v.1.15,2013-03-15 12:30:00,
2013-03-15 08:40:00,33.7,21.3,29.97,West,260,0.0,1.0,60,0.00,,,0.00,Wunderground v.1.15,2013-03-15 12:40:00,
2013-03-15 08:45:00,34.0,22.3,29.97,WNW,302,0.0,1.0,62,0.00,,,0.00,Wunderground v.1.15,2013-03-15 12:45:00,
2013-03-15 08:55:00,34.7,22.6,29.97,NW,305,0.0,0.0,61,0.00,,,0.00,Wunderground v.1.15,2013-03-15 12:55:00,
2013-03-15 09:05:00,35.0,23.3,29.98,NE,36,1.0,1.0,62,0.00,,,0.00,Wunderground v.1.15,2013-03-15 13:05:00,
2013-03-15 09:15:00,35.9,23.7,29.97,SSW,208,0.0,0.0,61,0.00,,,0.00,Wunderground v.1.15,2013-03-15 13:15:00,
2013-03-15 09:25:00,36.8,24.2,29.97,SSW,208,0.0,1.0,60,0.00,,,0.00,Wunderground v.1.15,2013-03-15 13:25:00,
2013-03-15 09:35:00,37.6,24.6,29.95,SSW,208,0.0,0.0,59,0.00,,,0.00,Wunderground v.1.15,2013-03-15 13:35:00,
2013-03-15 09:40:00,38.3,24.8,29.95,West,271,0.0,2.0,58,0.00,,,0.00,Wunderground v.1.15,2013-03-15 13:40:00,
2013-03-15 09:50:00,39.5,25.1,29.95,WSW,245,1.0,1.0,56,0.00,,,0.00,Wunderground v.1.15,2013-03-15 13:50:00,
2013-03-15 10:00:00,40.5,25.6,29.94,WSW,253,0.0,1.0,55,0.00,,,0.00,Wunderground v.1.15,2013-03-15 14:00:00,
2013-03-15 10:10:00,41.5,25.2,29.95,WNW,284,1.0,1.0,52,0.00,,,0.00,Wunderground v.1.15,2013-03-15 14:10:00,
2013-03-15 10:20:00,42.9,25.0,29.95,North,5,1.0,1.0,49,0.00,,,0.00,Wunderground v.1.15,2013-03-15 14:20:00,
2013-03-15 10:30:00,43.9,25.5,29.95,West,276,1.0,1.0,48,0.00,,,0.00,Wunderground v.1.15,2013-03-15 14:30:00,
2013-03-15 10:35:00,44.2,25.2,29.94,West,278,1.0,1.0,47,0.00,,,0.00,Wunderground v.1.15,2013-03-15 14:35:00,
2013-03-15 10:40:00,44.5,25.5,29.93,ENE,61,1.0,2.0,47,0.00,,,0.00,Wunderground v.1.15,2013-03-15 14:40:00,
2013-03-15 10:50:00,45.1,25.0,29.93,SE,138,1.0,1.0,45,0.00,,,0.00,Wunderground v.1.15,2013-03-15 14:50:00,
2013-03-15 11:00:00,45.5,25.4,29.93,East,87,2.0,3.0,45,0.00,,,0.00,Wunderground v.1.15,2013-03-15 15:00:00,
2013-03-15 11:20:00,47.0,25.6,29.92,NW,306,1.0,1.0,43,0.00,,,0.00,Wunderground v.1.15,2013-03-15 15:20:00,
2013-03-15 11:25:00,47.6,26.2,29.92,West,281,1.0,1.0,43,0.00,,,0.00,Wunderground v.1.15,2013-03-15 15:25:00,
2013-03-15 11:30:00,48.0,26.0,29.92,WNW,296,1.0,1.0,42,0.00,,,0.00,Wunderground v.1.15,2013-03-15 15:30:00,
2013-03-15 11:40:00,48.9,26.2,29.91,NNW,334,1.0,1.0,41,0.00,,,0.00,Wunderground v.1.15,2013-03-15 15:40:00,
2013-03-15 11:50:00,49.2,27.1,29.91,WSW,252,2.0,2.0,42,0.00,,,0.00,Wunderground v.1.15,2013-03-15 15:50:00,
2013-03-15 12:00:00,50.8,27.3,29.89,NNE,12,1.0,1.0,40,0.00,,,0.00,Wunderground v.1.15,2013-03-15 16:00:00,
2013-03-15 12:10:00,51.9,27.7,29.89,West,268,1.0,1.0,39,0.00,,,0.00,Wunderground v.1.15,2013-03-15 16:10:00,
2013-03-15 12:20:00,52.9,26.6,29.89,WNW,285,1.0,1.0,36,0.00,,,0.00,Wunderground v.1.15,2013-03-15 16:20:00,
2013-03-15 12:30:00,53.8,27.4,29.88,West,263,1.0,2.0,36,0.00,,,0.00,Wunderground v.1.15,2013-03-15 16:30:00,
2013-03-15 12:40:00,54.4,28.0,29.88,West,275,1.0,5.0,36,0.00,,,0.00,Wunderground v.1.15,2013-03-15 16:40:00,
2013-03-15 12:50:00,54.2,27.1,29.87,NW,319,2.0,2.0,35,0.00,,,0.00,Wunderground v.1.15,2013-03-15 16:50:00,
2013-03-15 13:00:00,55.7,28.4,29.86,ESE,115,1.0,1.0,35,0.00,,,0.00,Wunderground v.1.15,2013-03-15 17:00:00,
2013-03-15 13:10:00,56.2,28.2,29.86,NNE,13,1.0,1.0,34,0.00,,,0.00,Wunderground v.1.15,2013-03-15 17:10:00,
2013-03-15 13:20:00,56.5,29.1,29.85,West,259,1.0,1.0,35,0.00,,,0.00,Wunderground v.1.15,2013-03-15 17:20:00,
2013-03-15 13:25:00,57.0,28.9,29.85,WNW,287,1.0,3.0,34,0.00,,,0.00,Wunderground v.1.15,2013-03-15 17:25:00,
2013-03-15 13:30:00,57.2,26.8,29.85,North,9,1.0,4.0,31,0.00,,,0.00,Wunderground v.1.15,2013-03-15 17:30:00,
2013-03-15 13:40:00,56.5,27.0,29.85,SW,229,2.0,2.0,32,0.00,,,0.00,Wunderground v.1.15,2013-03-15 17:40:00,
2013-03-15 13:50:00,56.2,28.2,29.85,West,267,2.0,2.0,34,0.00,,,0.00,Wunderground v.1.15,2013-03-15 17:50:00,
2013-03-15 14:00:00,56.9,29.5,29.84,WSW,254,2.0,5.0,35,0.00,,,0.00,Wunderground v.1.15,2013-03-15 18:00:00,
2013-03-15 14:10:00,57.6,27.2,29.83,West,263,1.0,1.0,31,0.00,,,0.00,Wunderground v.1.15,2013-03-15 18:10:00,
2013-03-15 14:15:00,58.1,29.1,29.83,West,265,1.0,3.0,33,0.00,,,0.00,Wunderground v.1.15,2013-03-15 18:15:00,
2013-03-15 14:25:00,59.6,28.1,29.83,West,271,1.0,5.0,30,0.00,,,0.00,Wunderground v.1.15,2013-03-15 18:25:00,
2013-03-15 14:30:00,59.8,29.9,29.82,SSW,211,1.0,3.0,32,0.00,,,0.00,Wunderground v.1.15,2013-03-15 18:30:00,
2013-03-15 14:40:00,60.1,30.1,29.82,NE,46,2.0,2.0,32,0.00,,,0.00,Wunderground v.1.15,2013-03-15 18:40:00,
2013-03-15 14:50:00,60.9,30.0,29.81,NNE,17,1.0,1.0,31,0.00,,,0.00,Wunderground v.1.15,2013-03-15 18:50:00,
2013-03-15 15:00:00,61.6,30.6,29.80,WSW,251,1.0,1.0,31,0.00,,,0.00,Wunderground v.1.15,2013-03-15 19:00:00,
2013-03-15 15:10:00,62.1,29.4,29.79,NE,35,1.0,3.0,29,0.00,,,0.00,Wunderground v.1.15,2013-03-15 19:10:00,
2013-03-15 15:20:00,62.4,29.7,29.78,NE,40,1.0,3.0,29,0.00,,,0.00,Wunderground v.1.15,2013-03-15 19:20:00,
2013-03-15 15:30:00,62.6,29.0,29.77,NNE,24,2.0,2.0,28,0.00,,,0.00,Wunderground v.1.15,2013-03-15 19:30:00,
2013-03-15 15:40:00,63.9,29.2,29.76,NE,44,1.0,1.0,27,0.00,,,0.00,Wunderground v.1.15,2013-03-15 19:40:00,
2013-03-15 15:50:00,64.5,30.6,29.75,WNW,286,1.0,1.0,28,0.00,,,0.00,Wunderground v.1.15,2013-03-15 19:50:00,
2013-03-15 16:00:00,64.5,27.9,29.75,West,270,2.0,2.0,25,0.00,,,0.00,Wunderground v.1.15,2013-03-15 20:00:00,
2013-03-15 16:10:00,64.0,28.4,29.75,West,265,2.0,11.0,26,0.00,,,0.00,Wunderground v.1.15,2013-03-15 20:10:00,
2013-03-15 16:20:00,63.5,25.0,29.75,NNW,341,5.0,5.0,23,0.00,,,0.00,Wunderground v.1.15,2013-03-15 20:20:00,
2013-03-15 16:30:00,63.9,24.3,29.75,West,259,4.0,4.0,22,0.00,,,0.00,Wunderground v.1.15,2013-03-15 20:30:00,
2013-03-15 16:40:00,63.5,23.9,29.75,WNW,294,5.0,12.0,22,0.00,,,0.00,Wunderground v.1.15,2013-03-15 20:40:00,
2013-03-15 16:45:00,63.7,25.2,29.74,NNW,328,5.0,12.0,23,0.00,,,0.00,Wunderground v.1.15,2013-03-15 20:45:00,
2013-03-15 16:55:00,63.9,25.3,29.74,WSW,249,5.0,13.0,23,0.00,,,0.00,Wunderground v.1.15,2013-03-15 20:55:00,
2013-03-15 17:05:00,63.7,25.2,29.73,NW,315,4.0,7.0,23,0.00,,,0.00,Wunderground v.1.15,2013-03-15 21:05:00,
2013-03-15 17:10:00,62.7,24.3,29.73,WSW,242,4.0,5.0,23,0.00,,,0.00,Wunderground v.1.15,2013-03-15 21:10:00,
2013-03-15 17:20:00,63.2,25.8,29.72,WNW,297,5.0,10.0,24,0.00,,,0.00,Wunderground v.1.15,2013-03-15 21:20:00,
2013-03-15 17:30:00,63.5,26.0,29.72,West,272,5.0,5.0,24,0.00,,,0.00,Wunderground v.1.15,2013-03-15 21:30:00,
2013-03-15 17:40:00,64.0,27.4,29.72,North,5,3.0,3.0,25,0.00,,,0.00,Wunderground v.1.15,2013-03-15 21:40:00,
2013-03-15 17:50:00,63.7,27.2,29.72,NNE,30,5.0,5.0,25,0.00,,,0.00,Wunderground v.1.15,2013-03-15 21:50:00,
2013-03-15 18:00:00,63.4,26.9,29.72,WSW,250,4.0,6.0,25,0.00,,,0.00,Wunderground v.1.15,2013-03-15 22:00:00,
2013-03-15 18:05:00,62.9,27.5,29.73,WSW,258,4.0,6.0,26,0.00,,,0.00,Wunderground v.1.15,2013-03-15 22:05:00,
2013-03-15 18:15:00,62.4,27.9,29.73,NE,49,4.0,5.0,27,0.00,,,0.00,Wunderground v.1.15,2013-03-15 22:15:00,
2013-03-15 18:25:00,61.8,27.4,29.73,West,275,4.0,4.0,27,0.00,,,0.00,Wunderground v.1.15,2013-03-15 22:25:00,
2013-03-15 18:30:00,61.6,28.1,29.73,West,264,3.0,3.0,28,0.00,,,0.00,Wunderground v.1.15,2013-03-15 22:30:00,
2013-03-15 18:40:00,61.5,28.1,29.73,WNW,300,2.0,2.0,28,0.00,,,0.00,Wunderground v.1.15,2013-03-15 22:40:00,
2013-03-15 18:50:00,61.5,28.9,29.73,West,266,2.0,4.0,29,0.00,,,0.00,Wunderground v.1.15,2013-03-15 22:50:00,
2013-03-15 19:00:00,61.5,29.7,29.74,WSW,255,5.0,5.0,30,0.00,,,0.00,Wunderground v.1.15,2013-03-15 23:00:00,
2013-03-15 19:10:00,61.3,31.2,29.74,West,268,3.0,4.0,32,0.00,,,0.00,Wunderground v.1.15,2013-03-15 23:10:00,
2013-03-15 19:20:00,61.0,31.7,29.74,West,262,4.0,6.0,33,0.00,,,0.00,Wunderground v.1.15,2013-03-15 23:20:00,
2013-03-15 19:30:00,60.7,32.1,29.74,West,269,2.0,2.0,34,0.00,,,0.00,Wunderground v.1.15,2013-03-15 23:30:00,
2013-03-15 19:40:00,60.1,32.3,29.75,West,275,3.0,3.0,35,0.00,,,0.00,Wunderground v.1.15,2013-03-15 23:40:00,
2013-03-15 19:45:00,59.8,32.1,29.75,WNW,286,3.0,3.0,35,0.00,,,0.00,Wunderground v.1.15,2013-03-15 23:45:00,
2013-03-15 19:55:00,59.3,32.3,29.75,West,269,2.0,5.0,36,0.00,,,0.00,Wunderground v.1.15,2013-03-15 23:55:00,
2013-03-15 20:00:00,59.2,32.2,29.75,West,261,2.0,2.0,36,0.00,,,0.00,Wunderground v.1.15,2013-03-16 00:00:00,
2013-03-15 20:10:00,59.2,33.6,29.74,West,269,5.0,5.0,38,0.00,,,0.00,Wunderground v.1.15,2013-03-16 00:10:00,
2013-03-15 20:20:00,58.6,33.7,29.74,West,268,3.0,8.0,39,0.00,,,0.00,Wunderground v.1.15,2013-03-16 00:20:00,
2013-03-15 20:30:00,58.3,34.1,29.75,West,279,3.0,3.0,40,0.00,,,0.00,Wunderground v.1.15,2013-03-16 00:30:00,
2013-03-15 20:40:00,58.0,33.8,29.75,West,271,1.0,2.0,40,0.00,,,0.00,Wunderground v.1.15,2013-03-16 00:40:00,
2013-03-15 20:50:00,57.6,34.1,29.75,West,273,2.0,2.0,41,0.00,,,0.00,Wunderground v.1.15,2013-03-16 00:50:00,
2013-03-15 21:00:00,57.6,34.1,29.75,West,270,2.0,4.0,41,0.00,,,0.00,Wunderground v.1.15,2013-03-16 01:00:00,
2013-03-15 21:10:00,57.3,33.8,29.74,West,263,2.0,2.0,41,0.00,,,0.00,Wunderground v.1.15,2013-03-16 01:10:00,
2013-03-15 21:20:00,57.0,34.1,29.74,WSW,245,1.0,1.0,42,0.00,,,0.00,Wunderground v.1.15,2013-03-16 01:20:00,
2013-03-15 21:30:00,56.5,34.3,29.74,SW,227,1.0,1.0,43,0.00,,,0.00,Wunderground v.1.15,2013-03-16 01:30:00,
2013-03-15 21:40:00,56.3,34.1,29.75,NW,307,1.0,1.0,43,0.00,,,0.00,Wunderground v.1.15,2013-03-16 01:40:00,
2013-03-15 21:50:00,56.3,34.1,29.75,West,274,1.0,4.0,43,0.00,,,0.00,Wunderground v.1.15,2013-03-16 01:50:00,
2013-03-15 21:55:00,56.2,34.0,29.75,WNW,295,1.0,4.0,43,0.00,,,0.00,Wunderground v.1.15,2013-03-16 01:55:00,
2013-03-15 22:00:00,55.9,34.3,29.74,North,11,1.0,1.0,44,0.00,,,0.00,Wunderground v.1.15,2013-03-16 02:00:00,
2013-03-15 22:10:00,55.9,34.3,29.72,West,275,1.0,2.0,44,0.00,,,0.00,Wunderground v.1.15,2013-03-16 02:10:00,
2013-03-15 22:20:00,55.6,34.6,29.72,West,261,1.0,1.0,45,0.00,,,0.00,Wunderground v.1.15,2013-03-16 02:20:00,
2013-03-15 22:25:00,55.4,34.4,29.73,West,267,1.0,5.0,45,0.00,,,0.00,Wunderground v.1.15,2013-03-16 02:25:00,
2013-03-15 22:30:00,55.4,34.4,29.73,West,273,1.0,1.0,45,0.00,,,0.00,Wunderground v.1.15,2013-03-16 02:30:00,
2013-03-15 22:40:00,55.6,34.6,29.72,SW,236,1.0,1.0,45,0.00,,,0.00,Wunderground v.1.15,2013-03-16 02:40:00,
2013-03-15 22:50:00,55.9,34.8,29.72,ENE,59,1.0,1.0,45,0.00,,,0.00,Wunderground v.1.15,2013-03-16 02:50:00,
2013-03-15 23:00:00,55.9,35.4,29.72,West,277,1.0,1.0,46,0.00,,,0.00,Wunderground v.1.15,2013-03-16 03:00:00,
2013-03-15 23:10:00,55.7,35.2,29.70,West,266,2.0,3.0,46,0.00,,,0.00,Wunderground v.1.15,2013-03-16 03:10:00,
2013-03-15 23:20:00,55.7,35.2,29.70,NNE,22,2.0,2.0,46,0.00,,,0.00,Wunderground v.1.15,2013-03-16 03:20:00,
2013-03-15 23:30:00,55.7,35.2,29.70,NNW,346,2.0,2.0,46,0.00,,,0.00,Wunderground v.1.15,2013-03-16 03:30:00,
2013-03-15 23:40:00,55.7,35.2,29.70,West,263,1.0,3.0,46,0.00,,,0.00,Wunderground v.1.15,2013-03-16 03:40:00,
2013-03-15 23:50:00,55.9,35.9,29.70,West,270,2.0,4.0,47,0.00,,,0.00,Wunderground v.1.15,2013-03-16 03:50:00,
2013-03-15 23:55:00,55.9,35.4,29.70,West,269,2.0,4.0,46,0.00,,,0.00,Wunderground v.1.15,2013-03-16 03:55:00,